Location: La Vergne
(36.0160°N, 86.5820°W)
Time: 15:23:24
(UTC-05:00)

Cosmos 2341 Rocket - Pass Details

Date: 24 September 2017
Orbit: 969 x 1004 km, 82.9° (Epoch: 18 October)

Event Time Altitude Azimuth Distance (km) Brightness Sun altitude
Rises 20:33:57 0° 181° (S) 3,647 6.8 -23.6°
Reaches altitude 10° 20:36:26 10° 180° (S) 2,702 6.1 -24.1°
Maximum altitude 20:42:37 80° 94° (E) 986 3.8 -25.3°
Drops below altitude 10° 20:48:51 10° 9° (N) 2,722 6.4 -26.5°
Sets 20:51:22 0° 8° (N) 3,675 7.2 -27.0°
